Weather History for KESC - October, 2013

Change the Weather History Date:

Friday, October 18, 2013

  Actual Average Record
Temperature  
Mean Temperature 40 °F -  
Max Temperature 48 °F 52 °F 68 °F (1950)
Min Temperature 33 °F 37 °F 21 °F (1948)
Degree Days  
Heating Degree Days 24    
Moisture  
Dew Point 38 °F    
Average Humidity 89    
Maximum Humidity 100    
Minimum Humidity 81    
Precipitation  
Precipitation 0.08 in - - ()
Sea Level Pressure  
Sea Level Pressure 29.77 in    
Wind  
Wind Speed 4 mph (WNW)    
Max Wind Speed 8 mph    
Max Gust Speed -    
Visibility 9 miles    
Events      
Averages and records for this station are not official NWS values.
T = Trace of Precipitation, MM = Missing Value Source: NWS Daily Summary

Daily Weather History Graph

Daily Weather History Graph

Search for Another Location

Airport or City:

Trip Planner

Search our weather history database for the weather conditions in past years. The results will help you decide how hot, cold, wet, or windy it might be!

Date:

Astronomy

Oct. 18, 2013 Rise Set
Actual Time 8:09 AM EDT 6:56 PM EDT
Civil Twilight 7:39 AM EDT 7:26 PM EDT
Nautical Twilight 7:04 AM EDT 8:01 PM EDT
Astronomical Twilight 6:30 AM EDT 8:35 PM EDT
Moon 6:45 PM EDT (10/18) 7:44 AM EDT (10/18)
Length of Visible Light 11h 47m
Length of Day
10h 47m
Full, 100% of the Moon is Illuminated
Oct 18
Full
Oct 18
Full
Oct 26
Last Quarter
Nov 3
New
Nov 10
First Quarter

Hourly Weather History & Observations

Time (EDT) Temp. Windchill Dew Point Humidity Pressure Visibility Wind Dir Wind Speed Gust Speed Precip Events Conditions
12:15 AM 35.6 °F 30.7 °F 33.8 °F 93% 29.74 in 8.0 mi West 5.8 mph - N/A   Clear
12:35 AM 35.6 °F - 33.8 °F 93% 29.74 in 9.0 mi Calm Calm - N/A   Clear
12:55 AM 33.8 °F - 33.8 °F 100% 29.74 in 8.0 mi Calm Calm - N/A   Clear
1:15 AM 33.8 °F - 30.2 °F 87% 29.74 in 7.0 mi Calm Calm - N/A   Clear
1:35 AM 35.6 °F 31.7 °F 33.8 °F 93% 29.74 in 9.0 mi NW 4.6 mph - N/A   Mostly Cloudy
1:55 AM 35.6 °F 31.7 °F 33.8 °F 93% 29.74 in 9.0 mi West 4.6 mph - N/A   Scattered Clouds
2:15 AM 35.6 °F 31.7 °F 33.8 °F 93% 29.74 in 10.0 mi WNW 4.6 mph - N/A   Partly Cloudy
2:35 AM 37.4 °F 32.8 °F 33.8 °F 87% 29.74 in 10.0 mi WNW 5.8 mph - N/A   Clear
2:55 AM 37.4 °F 33.8 °F 35.6 °F 93% 29.73 in 10.0 mi NW 4.6 mph - N/A   Clear
3:15 AM 37.4 °F 33.8 °F 33.8 °F 87% 29.73 in 10.0 mi WNW 4.6 mph - N/A   Clear
3:35 AM 37.4 °F 33.8 °F 33.8 °F 87% 29.73 in 10.0 mi West 4.6 mph - N/A   Clear
3:55 AM 37.4 °F 34.9 °F 33.8 °F 87% 29.73 in 10.0 mi West 3.5 mph - N/A   Clear
4:15 AM 37.4 °F 32.8 °F 33.8 °F 87% 29.73 in 10.0 mi West 5.8 mph - N/A   Scattered Clouds
4:35 AM 37.4 °F - 35.6 °F 93% 29.73 in 10.0 mi Calm Calm - N/A   Mostly Cloudy
4:55 AM 37.4 °F - 33.8 °F 87% 29.73 in 10.0 mi Calm Calm - N/A   Mostly Cloudy
5:15 AM 35.6 °F - 33.8 °F 93% 29.73 in 5.0 mi Calm Calm - N/A   Partly Cloudy
5:35 AM 35.6 °F - 33.8 °F 93% 29.73 in 6.0 mi Calm Calm - N/A   Scattered Clouds
5:55 AM 35.6 °F 32.8 °F 33.8 °F 93% 29.73 in 8.0 mi NNW 3.5 mph - N/A   Mostly Cloudy
6:15 AM 35.6 °F - 33.8 °F 93% 29.74 in 10.0 mi Calm Calm - N/A   Overcast
6:35 AM 37.4 °F - 33.8 °F 87% 29.74 in 10.0 mi Calm Calm - N/A   Overcast
6:55 AM 37.4 °F - 33.8 °F 87% 29.74 in 9.0 mi Calm Calm - N/A   Overcast
7:15 AM 37.4 °F - 35.6 °F 93% 29.74 in 10.0 mi Calm Calm - N/A   Overcast
7:35 AM 39.2 °F - 35.6 °F 87% 29.74 in 10.0 mi Calm Calm - N/A   Overcast
7:55 AM 39.2 °F 37.0 °F 37.4 °F 93% 29.74 in 10.0 mi NNW 3.5 mph - N/A   Mostly Cloudy
8:15 AM 39.2 °F - 37.4 °F 93% 29.74 in 10.0 mi Calm Calm - N/A   Scattered Clouds
8:35 AM 37.4 °F 32.8 °F 35.6 °F 93% 29.75 in 8.0 mi West 5.8 mph - N/A   Mostly Cloudy
8:55 AM 39.2 °F 35.9 °F 37.4 °F 93% 29.76 in 6.0 mi West 4.6 mph - N/A   Overcast
9:15 AM 39.2 °F 35.9 °F 37.4 °F 93% 29.76 in 7.0 mi WNW 4.6 mph - N/A   Overcast
9:35 AM 41.0 °F 38.0 °F 39.2 °F 93% 29.77 in 10.0 mi West 4.6 mph - N/A   Overcast
9:55 AM 42.8 °F 39.3 °F 39.2 °F 87% 29.77 in 10.0 mi West 5.8 mph - N/A   Overcast
10:15 AM 42.8 °F 39.3 °F 39.2 °F 87% 29.77 in 10.0 mi West 5.8 mph - N/A   Overcast
10:35 AM 42.8 °F 40.1 °F 39.2 °F 87% 29.78 in 10.0 mi WSW 4.6 mph - N/A   Overcast
10:55 AM 42.8 °F 41.1 °F 39.2 °F 87% 29.78 in 10.0 mi SW 3.5 mph - N/A   Overcast
11:15 AM 42.8 °F 41.1 °F 41.0 °F 93% 29.78 in 10.0 mi West 3.5 mph - N/A   Overcast
11:35 AM 42.8 °F - 39.2 °F 87% 29.78 in 9.0 mi Calm Calm - N/A   Overcast
11:55 AM 44.6 °F 43.1 °F 41.0 °F 87% 29.78 in 8.0 mi NNW 3.5 mph - N/A   Overcast
12:15 PM 44.6 °F 43.1 °F 41.0 °F 87% 29.78 in 6.0 mi WNW 3.5 mph - 0.01 in   Overcast
12:35 PM 44.6 °F 42.2 °F 41.0 °F 87% 29.78 in 7.0 mi West 4.6 mph - 0.01 in   Overcast
12:55 PM 44.6 °F 41.4 °F 42.8 °F 93% 29.78 in 5.0 mi West 5.8 mph - 0.01 in   Overcast
1:15 PM 44.6 °F 42.2 °F 42.8 °F 93% 29.78 in 5.0 mi West 4.6 mph - N/A   Overcast
1:35 PM 44.6 °F 43.1 °F 42.8 °F 93% 29.78 in 8.0 mi West 3.5 mph - 0.01 in   Overcast
1:55 PM 46.4 °F 43.5 °F 44.6 °F 93% 29.77 in 10.0 mi NW 5.8 mph - 0.01 in   Overcast
2:15 PM 46.4 °F 44.3 °F 44.6 °F 93% 29.77 in 10.0 mi WNW 4.6 mph - N/A   Overcast
2:35 PM 46.4 °F 45.2 °F 42.8 °F 87% 29.77 in 10.0 mi West 3.5 mph - N/A   Overcast
2:55 PM 48.2 °F - 44.6 °F 87% 29.77 in 10.0 mi West 3.5 mph - N/A   Overcast
3:15 PM 48.2 °F - 44.6 °F 87% 29.77 in 10.0 mi West 4.6 mph - 0.01 in   Overcast
3:35 PM 48.2 °F - 44.6 °F 87% 29.77 in 10.0 mi WNW 3.5 mph - 0.01 in   Overcast
3:55 PM 46.4 °F 42.4 °F 42.8 °F 87% 29.77 in 8.0 mi NNW 8.1 mph - 0.03 in   Mostly Cloudy
4:15 PM 46.4 °F 44.3 °F 42.8 °F 87% 29.77 in 10.0 mi North 4.6 mph - 0.01 in   Overcast
4:35 PM 46.4 °F 44.3 °F 42.8 °F 87% 29.78 in 10.0 mi North 4.6 mph - 0.01 in   Overcast
4:55 PM 46.4 °F 43.5 °F 44.6 °F 93% 29.78 in 10.0 mi NNW 5.8 mph - 0.03 in   Overcast
5:15 PM 46.4 °F 43.5 °F 42.8 °F 87% 29.78 in 10.0 mi North 5.8 mph - N/A   Overcast
5:35 PM 46.4 °F 44.3 °F 42.8 °F 87% 29.79 in 10.0 mi NW 4.6 mph - N/A   Overcast
5:55 PM 46.4 °F 44.3 °F 42.8 °F 87% 29.80 in 10.0 mi NW 4.6 mph - N/A   Overcast
6:15 PM 44.6 °F 41.4 °F 42.8 °F 93% 29.80 in 10.0 mi NNW 5.8 mph - N/A   Overcast
6:35 PM 44.6 °F 42.2 °F 42.8 °F 93% 29.80 in 10.0 mi NNW 4.6 mph - N/A   Overcast
6:55 PM 44.6 °F 41.4 °F 39.2 °F 81% 29.81 in 10.0 mi NNW 5.8 mph - N/A   Overcast
7:15 PM 44.6 °F 40.7 °F 41.0 °F 87% 29.80 in 10.0 mi North 6.9 mph - N/A   Overcast
7:35 PM 44.6 °F 41.4 °F 39.2 °F 81% 29.81 in 10.0 mi NNW 5.8 mph - N/A   Overcast
7:55 PM 44.6 °F 43.1 °F 39.2 °F 81% 29.82 in 10.0 mi NW 3.5 mph - N/A   Overcast
8:15 PM 44.6 °F 42.2 °F 39.2 °F 81% 29.83 in 10.0 mi NW 4.6 mph - N/A   Overcast
8:35 PM 42.8 °F 40.1 °F 39.2 °F 87% 29.83 in 10.0 mi NNW 4.6 mph - N/A   Overcast
8:55 PM 42.8 °F 41.1 °F 39.2 °F 87% 29.83 in 10.0 mi NNW 3.5 mph - N/A   Overcast
9:15 PM 42.8 °F 40.1 °F 39.2 °F 87% 29.84 in 10.0 mi WNW 4.6 mph - N/A   Overcast
9:35 PM 42.8 °F 40.1 °F 39.2 °F 87% 29.84 in 10.0 mi WNW 4.6 mph - N/A   Overcast
9:55 PM 42.8 °F 38.6 °F 39.2 °F 87% 29.85 in 10.0 mi WNW 6.9 mph - N/A   Overcast
10:15 PM 42.8 °F 38.0 °F 37.4 °F 81% 29.84 in 10.0 mi WNW 8.1 mph - N/A   Mostly Cloudy
10:35 PM 42.8 °F 38.6 °F 37.4 °F 81% 29.84 in 10.0 mi NW 6.9 mph - N/A   Overcast
10:55 PM 41.0 °F 35.8 °F 37.4 °F 87% 29.84 in 10.0 mi WNW 8.1 mph - N/A   Overcast
11:15 PM 41.0 °F 36.4 °F 37.4 °F 87% 29.84 in 10.0 mi NW 6.9 mph - N/A   Overcast
11:35 PM 41.0 °F 38.0 °F 37.4 °F 87% 29.84 in 10.0 mi WNW 4.6 mph - N/A   Overcast
11:55 PM 41.0 °F 37.1 °F 37.4 °F 87% 29.84 in 10.0 mi WNW 5.8 mph - N/A   Overcast